{"data":{"norad_id":64828,"epoch":"2026-09-21T21:07:29.375040Z","epoch_age_seconds":55213,"freshness":"FRESH","line1":"1 64828U 25151N   26264.88020110  .00000728  00000+0  12450-3 0  9993","line2":"2 64828  51.9026 140.5716 0001006  96.6155 263.4922 14.79928488 64532","mean_motion":14.79928488,"eccentricity":0.0001006,"inclination_deg":51.9026,"raan_deg":140.5716,"arg_perigee_deg":96.6155,"mean_anomaly_deg":263.4922,"bstar":0.0001245,"rev_number":6453,"period_min":97.301998824689,"perigee_km":628.84489917773,"apogee_km":630.25484577648,"semimajor_km":7007.6868724771,"source":"CELESTRAK","updated_at":"2026-09-22T09:00:29.976472Z"}}